FW2602 Weather Reports


Display with metric or nautical units.
time (UTC)temp
F
wind
direction
speed
MPH
gust
MPH
rain 1hr
in
rain 24hr
in
rain mn
in
humidity
%
barometer
mb
20260503203520 50 296 8.0 20.0 0.00 0.00 0.00 38 1009.5
20260503203023 51 238 7.0 24.0 0.00 0.00 0.00 43 1009.7
20260503202512 50 287 16.0 24.0 0.00 0.00 0.00 39 1009.5
20260503202019 50 293 12.0 24.0 0.00 0.00 0.00 39 1009.6
20260503201511 50 294 17.0 27.0 0.00 0.00 0.00 38 1009.7
20260503201019 50 295 12.0 20.0 0.00 0.00 0.00 39 1009.9
20260503200511 50 277 5.0 18.0 0.00 0.00 0.00 39 1009.8
20260503200014 50 297 9.0 18.0 0.00 0.00 0.00 42 1009.8
20260503195526 50 291 3.0 17.0 0.00 0.00 0.00 42 1009.9
20260503195014 50 246 4.0 17.0 0.00 0.00 0.00 41 1010.1
20260503194529 50 314 4.0 18.0 0.00 0.00 0.00 41 1010.0
20260503194011 49 280 4.0 12.0 0.00 0.00 0.00 47 1010.1
20260503193526 49 231 3.0 12.0 0.00 0.00 0.00 40 1010.1
20260503193029 48 295 6.0 19.0 0.00 0.00 0.00 43 1010.1
20260503192520 48 289 13.0 19.0 0.00 0.00 0.00 42 1010.2
20260503192008 48 290 6.0 18.0 0.00 0.00 0.00 41 1010.5
20260503191520 48 319 5.0 25.0 0.00 0.00 0.00 43 1010.3
20260503191008 48 266 10.0 25.0 0.00 0.00 0.00 40 1010.5
20260503190514 48 274 9.0 23.0 0.00 0.00 0.00 43 1010.4
20260503190019 48 278 12.0 26.0 0.00 0.00 0.00 40 1010.6
20260503185511 49 280 16.0 26.0 0.00 0.00 0.00 42 1010.6
20260503185019 49 301 12.0 24.0 0.00 0.00 0.00 45 1010.4
20260503184519 48 300 2.0 21.0 0.00 0.00 0.00 47 1010.5
20260503184014 47 305 13.0 21.0 0.00 0.00 0.00 46 1010.6
20260503183509 48 326 9.0 14.0 0.00 0.00 0.00 47 1010.6
20260503183015 47 252 3.0 17.0 0.00 0.00 0.00 46 1010.7
20260503182509 47 289 7.0 17.0 0.00 0.00 0.00 51 1010.8
20260503182014 46 304 4.0 14.0 0.00 0.00 0.00 52 1010.7
20260503181525 45 287 6.0 14.0 0.00 0.00 0.00 49 1010.9
20260503181012 45 315 8.0 14.0 0.00 0.00 0.00 50 1010.9
20260503180523 45 236 6.0 16.0 0.00 0.00 0.00 49 1010.9
20260503180016 45 317 8.0 14.0 0.00 0.00 0.00 49 1011.0
20260503175518 45 314 7.0 14.0 0.00 0.00 0.00 48 1011.0
20260503175006 45 304 4.0 14.0 0.00 0.00 0.00 50 1011.2
20260503174519 45 295 6.0 15.0 0.00 0.00 0.00 50 1011.3
20260503174019 45 311 6.0 17.0 0.00 0.00 0.00 50 1011.2
20260503173527 45 300 8.0 17.0 0.00 0.00 0.00 53 1011.3
20260503173022 45 287 9.0 17.0 0.00 0.00 0.00 54 1011.3
20260503172529 44 290 10.0 18.0 0.00 0.00 0.00 55 1011.3
20260503172010 43 281 12.0 19.0 0.00 0.00 0.00 54 1011.3
20260503171524 43 295 10.0 19.0 0.00 0.00 0.00 54 1011.3
20260503171010 43 293 9.0 17.0 0.00 0.00 0.00 55 1011.4
20260503170522 43 283 11.0 17.0 0.00 0.00 0.00 53 1011.5
20260503150507 42 315 5.0 12.0 0.00 0.00 0.00 54 1011.8
20260503131014 39 270 7.0 13.0 0.00 0.00 0.00 66 1012.2
20260503130527 39 304 5.0 16.0 0.00 0.00 0.00 67 1012.2
20260503110504 35 288 3.0 5.0 0.00 0.00 0.00 83 1011.6
20260503100109 34 277 0.0 4.0 0.00 0.00 0.00 82 1011.1
20260503081547 34 297 1.0 3.0 0.00 0.01 0.00 82 1011.3
20260503081046 34 293 1.0 3.0 0.00 0.01 0.00 83 1011.3
20260503080545 34 293 0.0 3.0 0.00 0.01 0.00 83 1011.4
20260503072544 34 287 2.0 4.0 0.00 0.01 0.00 82 1011.4
20260503072041 34 298 0.0 3.0 0.00 0.01 0.00 82 1011.5
20260503071540 34 291 0.0 3.0 0.00 0.01 0.00 83 1011.5
20260503071039 34 294 0.0 2.0 0.00 0.01 0.00 83 1011.6
20260503070538 34 291 0.0 2.0 0.00 0.01 0.00 83 1011.7
20260503055028 33 301 1.0 5.0 0.00 0.01 0.00 83 1012.2
20260503054536 33 278 1.0 5.0 0.00 0.01 0.00 83 1012.2
20260503054026 33 268 0.0 3.0 0.00 0.01 0.00 83 1012.3
20260503053527 33 262 0.0 6.0 0.00 0.01 0.00 82 1012.4
20260503053026 33 297 2.0 6.0 0.00 0.01 0.00 82 1012.4
20260503052524 33 307 2.0 5.0 0.00 0.01 0.00 82 1012.5
20260503052023 33 280 0.0 4.0 0.00 0.01 0.00 81 1012.5
20260503051527 33 285 1.0 4.0 0.00 0.01 0.00 81 1012.5
20260503051020 33 277 0.0 3.0 0.00 0.01 0.00 81 1012.6
20260503050520 34 255 1.0 2.0 0.00 0.01 0.00 81 1012.7
20260503050022 34 264 0.0 2.0 0.00 0.01 0.00 81 1012.6
20260503045519 34 295 0.0 2.0 0.00 0.01 0.00 80 1012.7
20260503045021 34 295 0.0 4.0 0.00 0.01 0.00 80 1012.7
20260503044529 34 246 0.0 2.0 0.00 0.01 0.00 79 1012.7
20260503044018 34 297 0.0 4.0 0.00 0.01 0.00 79 1012.7
20260503043515 34 297 0.0 4.0 0.00 0.01 0.00 79 1012.8
20260503043014 34 314 0.0 3.0 0.00 0.01 0.00 78 1012.8
20260503042513 34 304 1.0 3.0 0.00 0.01 0.00 79 1012.8
20260503042012 34 298 0.0 2.0 0.00 0.01 0.00 80 1012.8
20260503041512 34 261 0.0 2.0 0.00 0.01 0.00 80 1012.8
20260503041009 34 293 0.0 0.0 0.00 0.01 0.00 80 1012.9
20260503040509 34 293 0.0 1.0 0.00 0.01 0.00 79 1012.9
20260503040008 34 293 0.0 1.0 0.00 0.01 0.00 78 1012.8
20260503035509 34 292 0.0 2.0 0.00 0.03 0.01 78 1012.8
20260503035006 35 292 0.0 2.0 0.00 0.03 0.01 78 1012.8
20260503034506 35 290 0.0 2.0 0.00 0.03 0.01 77 1012.8
20260503034004 35 308 0.0 2.0 0.00 0.03 0.01 76 1012.8
20260503033506 35 308 0.0 3.0 0.00 0.03 0.01 76 1012.9
20260503033003 35 314 0.0 3.0 0.00 0.03 0.01 76 1012.9
20260503032503 35 290 0.0 2.0 0.00 0.03 0.01 75 1012.8
20260503032005 35 291 0.0 2.0 0.00 0.03 0.01 75 1012.8
20260503031503 36 278 0.0 4.0 0.00 0.03 0.01 75 1012.9
20260503031001 36 299 0.0 4.0 0.00 0.03 0.01 75 1012.8
20260503030600 36 284 1.0 3.0 0.00 0.03 0.01 74 1012.9
20260503030101 36 293 0.0 3.0 0.00 0.03 0.01 74 1012.8
20260503025600 36 299 1.0 3.0 0.00 0.05 0.01 74 1012.9
20260503025059 36 287 0.0 5.0 0.00 0.05 0.01 74 1012.9
20260503024559 36 290 3.0 5.0 0.00 0.05 0.01 74 1012.9
20260503024059 36 294 1.0 10.0 0.00 0.05 0.01 73 1012.9
20260503023559 37 297 3.0 10.0 0.00 0.05 0.01 73 1012.9
20260503023101 36 315 2.0 6.0 0.00 0.05 0.01 74 1013.0
20260503022558 36 263 2.0 6.0 0.00 0.05 0.01 75 1013.0
20260503022057 36 276 2.0 6.0 0.00 0.05 0.01 75 1012.9
20260503021556 37 291 3.0 6.0 0.00 0.05 0.01 73 1012.9
20260503021055 37 283 2.0 5.0 0.00 0.05 0.01 73 1012.9
20260503020555 37 288 1.0 5.0 0.00 0.05 0.01 73 1012.9
20260503020055 37 309 1.0 3.0 0.00 0.05 0.01 72 1012.9
20260503015556 37 288 0.0 3.0 0.00 0.07 0.01 73 1012.9
20260503015055 37 311 0.0 3.0 0.00 0.07 0.01 73 1012.9
20260503014554 37 290 0.0 2.0 0.00 0.07 0.01 74 1012.9
20260503014055 37 286 0.0 2.0 0.00 0.07 0.01 73 1012.9
20260503013555 37 286 0.0 2.0 0.00 0.07 0.01 72 1013.0
20260503013056 37 287 0.0 1.0 0.00 0.07 0.01 72 1012.9
20260503012552 38 287 0.0 2.0 0.00 0.07 0.01 72 1012.9
20260503012011 38 287 0.0 2.0 0.00 0.07 0.01 72 1012.9
20260503011521 38 268 0.0 3.0 0.00 0.07 0.01 72 1012.9
20260503011007 38 286 0.0 1.0 0.00 0.07 0.01 71 1012.9
20260503010517 38 285 0.0 2.0 0.00 0.07 0.01 71 1012.8
20260503010019 38 284 0.0 5.0 0.00 0.07 0.01 71 1012.8
20260503005510 38 294 1.0 5.0 0.00 0.07 0.01 71 1012.7
20260503005017 38 302 2.0 6.0 0.00 0.07 0.01 70 1012.7
20260503004527 39 295 1.0 6.0 0.00 0.07 0.01 70 1012.6
20260503004012 39 302 0.0 5.0 0.00 0.07 0.01 69 1012.7
20260503003523 39 262 1.0 6.0 0.00 0.07 0.01 69 1012.6
20260503003008 39 312 0.0 8.0 0.00 0.07 0.01 68 1012.6
20260503002519 39 294 1.0 8.0 0.00 0.07 0.01 68 1012.6
20260503002017 40 330 1.0 5.0 0.00 0.07 0.01 67 1012.5
20260503001513 40 257 0.0 2.0 0.00 0.07 0.01 67 1012.5
20260503001014 40 236 0.0 3.0 0.00 0.07 0.01 66 1012.4
20260503000525 41 300 0.0 3.0 0.00 0.07 0.01 64 1012.4
20260503000015 41 319 0.0 7.0 0.00 0.07 0.01 63 1012.3
20260502235523 42 314 0.0 8.0 0.00 0.07 0.01 63 1012.3
20260502235009 42 297 1.0 6.0 0.00 0.07 0.01 63 1012.2
20260502234518 43 293 2.0 5.0 0.00 0.07 0.01 61 1012.2
20260502234002 43 273 1.0 6.0 0.00 0.07 0.01 60 1012.1
20260502233517 43 293 1.0 7.0 0.00 0.07 0.01 60 1012.2
20260502233021 43 280 3.0 7.0 0.00 0.07 0.01 60 1012.1
20260502232511 42 307 4.0 7.0 0.00 0.07 0.01 60 1012.1
20260502232016 42 285 3.0 9.0 0.00 0.07 0.01 60 1012.1
20260502231512 42 294 3.0 9.0 0.00 0.07 0.01 59 1012.1
20260502231011 43 298 5.0 13.0 0.00 0.07 0.01 59 1012.0
20260502230522 43 290 3.0 13.0 0.00 0.07 0.01 58 1011.9
20260502230017 43 295 6.0 11.0 0.00 0.07 0.01 58 1012.0
20260502225523 43 276 4.0 12.0 0.00 0.07 0.01 59 1011.9
20260502225009 43 290 7.0 11.0 0.00 0.07 0.01 57 1011.9
20260502224517 43 308 7.0 12.0 0.00 0.07 0.01 57 1011.9
20260502224019 43 309 6.0 16.0 0.00 0.07 0.01 57 1011.9
20260502223511 43 300 8.0 16.0 0.00 0.07 0.01 56 1011.8
20260502223018 43 301 6.0 13.0 0.00 0.07 0.01 55 1011.8
20260502222509 43 288 1.0 6.0 0.00 0.07 0.01 55 1011.8
20260502222016 43 300 1.0 6.0 0.00 0.07 0.01 55 1011.8
20260502221508 44 312 3.0 13.0 0.00 0.07 0.01 57 1011.7
20260502221018 44 287 2.0 13.0 0.00 0.07 0.01 54 1011.8
20260502220507 44 309 8.0 12.0 0.00 0.07 0.01 53 1011.7
20260502220014 44 297 5.0 10.0 0.00 0.07 0.01 56 1011.7
20260502215526 44 297 3.0 10.0 0.00 0.07 0.01 57 1011.7
20260502215014 44 307 2.0 7.0 0.00 0.07 0.01 57 1011.6
20260502214535 44 269 2.0 13.0 0.00 0.07 0.01 56 1011.7
20260502214014 44 285 3.0 13.0 0.00 0.07 0.01 58 1011.8
20260502213527 44 317 2.0 8.0 0.00 0.07 0.01 58 1011.7
20260502213015 44 294 4.0 11.0 0.00 0.07 0.01 57 1011.7
20260502212527 44 298 4.0 9.0 0.00 0.07 0.01 56 1011.6
20260502212012 44 267 4.0 8.0 0.00 0.07 0.01 55 1011.6
20260502211528 45 294 1.0 7.0 0.00 0.07 0.01 57 1011.4
20260502211011 45 340 2.0 9.0 0.00 0.07 0.01 56 1011.5
20260502210524 45 317 2.0 9.0 0.00 0.07 0.01 56 1011.4
20260502210025 45 300 3.0 8.0 0.00 0.07 0.01 54 1011.4
20260502205524 45 315 3.0 9.0 0.00 0.07 0.01 54 1011.3
20260502205014 45 291 6.0 9.0 0.00 0.07 0.01 54 1011.3
20260502204524 45 287 1.0 10.0 0.00 0.07 0.01 56 1011.3
20260502204014 46 295 6.0 10.0 0.00 0.07 0.01 57 1011.3